Location: Rio Negrinho
(26.2394°S, 49.4999°W)
Time: 23:16:54
(UTC+00:00)

Cosmos 1844 - Pass Details

Date: 07 June 2020
Orbit: 821 x 869 km, 70.9° (Epoch: 13 July)

Event Time Altitude Azimuth Distance (km) Brightness Sun altitude
Rises 08:28:18 0° 339° (NNW) 3,412 6.8 -20.2°
Reaches altitude 10° 08:30:45 10° 338° (NNW) 2,476 6.1 -19.7°
Maximum altitude 08:36:27 78° 251° (WSW) 872 3.6 -18.5°
Drops below altitude 10° 08:42:08 10° 165° (SSE) 2,470 6.1 -17.3°
Sets 08:44:35 0° 163° (SSE) 3,404 6.9 -16.7°
